www.pogodaiklimat.ru
ПОГОДА в Дансвилле
Время
и дата
04:54 22.05
05:54 22.05
06:54 22.05
07:54 22.05
08:54 22.05
09:54 22.05
10:54 22.05
11:54 22.05
12:31 22.05
12:38 22.05
12:54 22.05
13:54 22.05
14:29 22.05
14:54 22.05
15:07 22.05
15:54 22.05
16:54 22.05
17:33 22.05
17:54 22.05
18:54 22.05
19:54 22.05
20:54 22.05
21:54 22.05
22:54 22.05
23:44 22.05
23:54 22.05
00:54 23.05
01:54 23.05
02:54 23.05
03:04 23.05
03:54 23.05
04:21 23.05
04:35 23.05
04:54 23.05
05:54 23.05
06:07 23.05
06:54 23.05
07:54 23.05
08:54 23.05
09:54 23.05
10:54 23.05
11:54 23.05
12:54 23.05
13:54 23.05
14:54 23.05
15:54 23.05
16:54 23.05
17:54 23.05
Ветер
(напр.,м/с)
Видим. Явления Облачность Т
(С)
Тd
(С)
f
(%)
Тe
(С)
Тes
(С)
Комфортность P
(гПа)
Po
(гПа)
Тmin
(С)
Tmax
(С)
R
(мм)
R24
(мм)
S
(см)
ЮВ 2 16 км ясно +16.1 +15.0 93 +15 +15 1015.7 991.2
ЮВ 2 16 км ясно +18.3 +15.6 84 +19 +19 1016.2 991.8
В 2 16 км ясно +21.1 +16.1 73 +24 +25 комфорт 1016.2 991.8 +16.1 +21.1 5.1
нст 1 16 км ясно +22.2 +16.1 68 +26 +30 душно 1016.9 992.1
ЮВ 2 16 км ясно +22.8 +17.2 71 +28 +32 душно 1016.3 991.8
Ю 2 16 км ясно +25.6 +17.2 60 +30 +35 душно 1016.0 991.5
ЮЗ 2 16 км 2/0 3600 м
[Ac]
+26.7 +17.2 56 +31 +39 душно 1015.5 990.8
СЗ 2 16 км 10/10 1410 м +26.1 +16.7 56 +30 +30 душно 1016.0 991.5
ЮЗ 2
{4}
3 км сильный дождь 10/5 1170 м
[Ac]
+23.3 +17.2 69 +29 +32 душно 992.1
нст 1 5 км слабый дождь 10/8 1080 м
[Ac]
+22.8 +17.8 73 +28 +30 душно 992.1
нст 1 16 км 10/2 1140 м
[Ac]
+23.3 +18.9 76 +30 +37 очень
душно
1016.9 992.1 +21.1 +27.8 1.8
СЗ 3
{4}
16 км 10/10 690 м +21.1 +17.2 78 +25 +25 комфорт 1017.8 993.1
С 4
{5}
16 км слабый дождь 10/10 360 м +15.0 +13.3 90 +13 +13 994.8
С 3
{4}
16 км 10/10 420 м +15.0 +12.8 87 +13 +13 1020.4 995.4
С 2 16 км 10/10 630 м +15.0 +12.8 87 +14 +14 995.8
СЗ 2 16 км 10/10 570 м +15.6 +12.2 80 +15 +15 1020.9 996.1 0.3
С 2 16 км 10/10 570 м +15.6 +12.2 80 +14 +14 1021.8 996.8
СЗ 2 16 км 5/5 570 м
[Ac]
+16.1 +11.1 72 +15 +17 997.4
СЗ 2 16 км ясно +16.7 +10.6 67 +16 +18 1022.2 997.4
С 2 16 км ясно +14.4 +8.9 70 +13 +14 1023.1 998.1 +14.4 +23.9 0.3
штиль 0 16 км ясно +13.3 +8.9 75 +13 +13 1024.1 999.1
штиль 0 16 км 10/10 930 м +13.3 +8.9 75 +13 +13 1025.0 1000.1
штиль 0 16 км 10/10 750 м +12.8 +10.0 83 +12 +12 1024.8 1000.1
С 1 16 км 10/10 690 м +12.8 +10.0 83 +12 +12 1025.2 1000.4
СЗ 2 16 км 10/10 690 м +12.2 +8.3 77 +10 +10 1000.4
СЗ 2 16 км 10/10 900 м +12.2 +8.9 80 +10 +10 1025.6 1000.7
штиль 0 16 км 10/10 990 м +12.2 +8.3 77 +12 +12 1026.0 1001.1 +12.2 +14.4
СЗ 1 16 км 10/10 990 м +11.7 +8.9 83 +11 +11 1026.0 1001.1
СЗ 1 16 км 10/10 870 м +11.7 +8.3 80 +10 +10 1026.6 1001.4
СЗ 1 16 км 10/10 870 м +11.7 +7.8 77 +10 +10 1001.4
С 1 16 км 10/10 810 м +11.1 +7.2 77 +9 +9 1026.6 1001.4
СЗ 2 16 км 10/10 900 м +10.6 +6.1 74 +8 +8 1001.7
СЗ 2 16 км 10/10 870 м +10.6 +6.1 74 +8 +8 1001.7
СЗ 1 16 км 10/10 870 м +10.6 +6.7 77 +9 +9 1027.0 1001.7
СЗ 1 16 км 8/8 870 м +10.6 +5.6 71 +9 +9 1027.4 1002.1
СЗ 1 16 км 2/2 870 м +10.6 +5.6 71 +9 +9 1002.4
СЗ 2 16 км ясно +10.6 +5.6 71 +8 +9 1027.9 1002.7 +10.0 +12.2 2.0
СЗ 1 16 км ясно +12.2 +5.0 61 +11 +14 1028.1 1002.7
С 1 16 км ясно +13.3 +5.6 60 +12 +18 1027.8 1002.4
СЗ 2 16 км ясно +15.0 +6.7 58 +14 +22 1027.5 1002.4
нст 1 16 км 2/2 1110 м +16.7 +7.2 53 +17 +29 опасность
простуды
1027.5 1002.4
СЗ 2 16 км 2/2 1500 м +17.2 +6.1 48 +17 +24 1027.3 1002.1
СЗ 2 16 км 2/2 1500 м +17.2 +5.6 46 +17 +27 1026.6 1001.4 +11.1 +17.8
СЗ 2 16 км 2/2 1650 м +17.8 +5.0 43 +17 +25 1026.2 1001.1
СЗ 2 16 км ясно +18.3 +5.6 43 +18 +29 1025.9 1000.7
СЗ 1 16 км ясно +17.2 +5.6 46 +17 +28 1025.8 1000.4
С 1 16 км ясно +17.2 +5.6 46 +18 +26 1025.8 1000.4
С 1 16 км ясно +16.1 +6.7 54 +16 +20 1025.7 1000.4
Местоположение метеостанции Dansville Municipal Airport: широта 42.5694 долгота -77.7144 высота над уровнем моря 201 м.
В архиве по умолчанию представлена погода в Дансвилле за последние 1-2 суток. Обновление информации о фактической погоде в базе происходит ежечасно! Архивные данные за месяц целиком и за предыдущие месяцы Вы можете получить, выбрав интересующий диапазон дат из раскрывающегося списка и нажав кнопку "Ввод!".
Внимание! Архив погоды МЕТАР в базе сайта по станциям, не включенным в климатический монитор, хранится не более 60 дней. Нет смысла пытаться выбрать более раннюю дату.
*Определитесь, кто Вы:
Внимание! Время в таблицах - местное (без учета летнего времени). Для получения всемирного времени необходимо вычесть поправку, которая равна -5 ч.
Смотрите также архив погоды в соседних городах и на ближайших метеорологических станциях:
Партнеры нашего сайта:      
Пояснения к столбцам:
  • Ветер - указаны скорость ветра в м/с - средняя за 10 мин, порывы в срок и между сроками (в фигурных скобках) и направление, откуда дует ветер: С - северный,
  • СВ - северо-восточный, В - восточный, ЮВ - юго-восточный, Ю - южный, ЮЗ - юго-западный, З - западный, СЗ - северо-западный.
  • Видимость - горизонтальная дальность видимости в метрах или километрах. При видимости от 1 до 10 км при отсутствии осадков обычно наблюдается дымка, при ухудшении видимости до 1 км и менее - туман. В сухую погоду видимость может ухудшаться дымом, пылью или мглою.
  • Явления - указаны атмосферные явления, наблюдавшиеся в срок или в последний час перед сроком; фигурными скобками обозначены явления, наблюдавшиеся между сроками (за 1-3 часа до срока); квадратными скобками обозначены град или гололедные отложения с указанием их диаметра в мм.
  • Облачность - указаны через наклонную черту общая и нижняя облачность в баллах и высота нижней границы облаков в метрах; квадратными скобками обозначены формы облаков: Ci - перистые, Cs - перисто-слоистые, Cc - перисто-кучевые, Ac - высококучевые, As - высокослоистые, Sc - слоисто-кучевые, Ns - слоисто-дождевые, Cu - кучевые, Cb - кучево-дождевые. Подробнее классификацию облаков см. в Атласе облаков (PDF).
  • T - Температура воздуха - температура, измеренная на высоте 2 м над землей.
  • Td - Температура точки росы - температура, при понижении до которой содержащийся в воздухе водяной пар достигнет насыщения.
  • f - Относительная влажность воздуха - влажноcть воздуха, измеренная на высоте 2 м над землей.
  • Te - Эффективная температура - температура, которую ощущает одетый по сезону человек в тени. Характеристика душности погоды. При расчете учитывается влияние влажности воздуха и скорости ветра на теплоощущения человека.
  • Tes - Эффективная температура на солнце - температура, которую ощущает человек, с поправкой на солнечный нагрев. Характеристика знойности погоды. Зависит от высоты солнца над горизонтом, облачности и скорости ветра. Ночью, в пасмурную погоду, а также при ветре 12 м/с и более поправка равна нулю.
  • P - Атмосферное давление - приведенное к уровню моря атмосферное давление.
  • Po - Атмосферное давление - измеренное на уровне метеостанции атмосферное давление.
  • Tmin - Минимальная температура - минимум температуры воздуха на высоте 2 м над землей.
  • Tmax - Максимальная температура - максимум температуры воздуха на высоте 2 м над землей.
  • R - Количество осадков - Количество выпавших осадков за период времени, мм. При наведении курсора мыши на число - период времени, за который выпало указанное количество осадков.
  • R24 - Количество осадков - Количество выпавших осадков за 24 часа, мм.
  • S - Снежный покров - Высота снежного покрова, см. При наведении курсора мыши на число - состояние снежного покрова и степень покрытия местности в баллах.